Probability
0 3 6 10 10 6 13 13 10 13 13 16 16 13 10 10 13 13 6 6 6 6 6 6 0 0 0 0 0 0 0 0 0 0 0 0 0 0 0 0 0 0 0
0 0 0 6 10 6 10 13 10 10 10 13 16 16 13 10 10 10 6 6 6 3 3 3 3 0 0 0 0 0 0 0 0 0 0 0 0 0 0 0 0 0 0
0 0 0 6 10 6 6 6 6 10 10 10 13 6 10 6 10 6 6 6 6 6 6 3 6 0 0 0 0 0 0 0 0 0 0 0 0 0 0 0 0 0 0
0 0 0 3 6 10 6 6 6 6 10 10 10 6 10 6 3 3 6 6 3 3 0 3 0 0 0 0 0 0 0 0 0 0 0 0 0 0 0 0 0 0 0
0 0 0 3 6 6 6 6 6 6 6 6 10 10 10 6 10 10 3 3 0 0 0 0 0 0 0 0 0 0 0 0 0 0 0 0 0 0 0 0 0 0 0
0 0 0 3 3 3 3 3 3 6 6 6 6 6 3 6 3 0 0 0 0 0 0 0 0 0 0 0 0 0 0 0 0 0 0 0 0 0 0 0 0 0 0
0 0 0 0 3 3 3 3 3 3 3 3 3 0 0 3 3 3 0 0 0 0 0 0 0 0 0 0 0 0 0 0 0 0 0 0 0 0 0 0 0 0 0
0 0 0 0 0 3 0 0 0 3 3 3 3 3 3 3 3 0 0 0 0 0 0 0 0 0 0 0 0 0 0 0 0 0 0 0 0 0 0 0 0 0 0
0 0 0 0 0 0 0 0 3 3 3 3 3 3 3 3 3 0 0 0 0 0 0 0 0 0 0 0 0 0 0 0 0 0 0 0 0 0 0 0 0 0 0
0 0 0 0 0 0 0 3 3 3 3 3 3 3 3 3 0 0 0 0 0 0 0 0 0 0 0 0 0 0 0 0 0 0 0 0 0 0 0 0 0 0 0
0 0 0 0 0 0 0 0 3 3 3 3 0 0 0 0 0 0 0 0 0 0 0 0 0 0 0 0 0 0 0 0 0 0 0 0 0 0 0 0 0 0 0
0 0 0 0 0 0 0 0 0 0 0 0 0 0 0 0 0 0 0 0 0 0 0 0 0 0 0 0 0 0 0 0 0 0 0 0 0 0 0 0 0 0 0
0 0 0 0 0 0 0 0 0 0 0 0 0 0 0 0 0 0 0 0 0 0 0 0 0 0 0 0 0 0 0 0 0 0 0 0 0 0 0 0 0 0 0
0 0 0 0 0 0 0 0 0 0 0 0 0 0 0 0 0 0 0 0 0 0 0 0 0 0 0 0 0 0 0 0 0 0 0 0 0 0 0 0 0 0 0
0 0 0 0 0 0 0 0 0 0 0 0 0 0 0 0 0 0 0 0 0 0 0 0 0 0 0 0 0 0 0 0 0 0 0 0 0 0 0 0 0 0 0
0 0 0 0 0 0 0 0 0 0 0 0 0 0 0 0 0 0 0 0 0 0 0 0 0 0 0 0 0 0 0 0 0 0 0 0 0 0 0 0 0 0 0
0 0 0 0 0 0 0 0 0 0 0 0 0 0 0 0 0 0 0 0 0 0 0 0 0 0 0 0 0 0 0 0 0 0 0 0 0 0 0 0 0 0 0
0 0 0 0 0 0 0 0 0 0 0 0 0 0 0 0 0 0 0 0 0 0 0 0 0 0 0 0 0 0 0 0 0 0 0 0 0 0 0 0 0 0 0
0 0 0 0 0 0 0 0 0 0 0 0 0 0 0 0 0 0 0 0 0 0 0 0 0 0 0 0 0 0 0 0 0 0 0 0 0 0 0 0 0 0 0
0 0 0 0 0 0 0 0 0 0 0 0 0 0 0 0 0 0 0 0 0 0 0 0 0 0 0 0 0 0 0 0 0 0 0 0 0 0 0 0 0 0 0
0 0 0 0 0 0 0 0 0 0 0 0 0 0 0 0 0 0 0 0 0 0 0 0 0 0 0 0 0 0 0 0 0 0 0 0 0 0 0 0 0 0 0
0 0 0 0 0 0 0 0 0 0 0 0 0 0 0 0 0 0 0 0 0 0 0 0 0 0 0 0 0 0 0 0 0 0 0 0 0 0 0 0 0 0 0
0 0 0 0 0 0 0 0 0 0 0 0 0 0 0 0 0 0 0 0 0 0 0 0 0 0 0 0 0 0 0 0 0 0 0 0 0 0 0 0 0 0 0
0 0 0 0 0 0 0 0 0 0 0 0 0 0 0 0 0 0 0 0 0 0 0 0 0 0 0 0 0 0 0 0 0 0 0 0 0 0 0 0 0 0 0
0 0 0 0 0 0 0 0 0 0 0 0 0 0 0 0 0 0 0 0 0 0 0 0 0 0 0 0 0 0 0 0 0 0 0 0 0 0 0 0 0 0 0
0 0 0 0 0 0 0 0 0 0 0 0 0 0 0 0 0 0 0 0 0 0 0 0 0 0 0 0 0 0 0 0 0 0 0 0 0 0 0 0 0 0 0
Height
5739 5743 5748 5754 5758 5763 5768 5774 5778 5783 5787 5790 5794 5797 5799 5802 5804 5806 5807 5809 5811 5812 5813 5814 5816 5817 5817 5818 5818 5818 5819 5819 5818 5818 5818 5817 5816 5814 5813 5811 5810 5808 5806
5729 5733 5738 5744 5749 5754 5759 5764 5769 5774 5778 5782 5785 5788 5790 5793 5795 5797 5799 5801 5802 5804 5805 5806 5808 5809 5809 5810 5810 5811 5811 5811 5811 5811 5810 5810 5809 5807 5806 5804 5803 5801 5799
5719 5724 5728 5733 5739 5744 5749 5755 5760 5765 5769 5773 5776 5779 5781 5783 5786 5788 5790 5792 5794 5796 5797 5798 5799 5800 5801 5802 5802 5803 5803 5803 5803 5802 5802 5802 5801 5800 5799 5797 5795 5793 5791
5710 5714 5718 5723 5728 5734 5739 5745 5750 5755 5759 5763 5766 5769 5772 5775 5778 5780 5782 5784 5785 5787 5788 5790 5791 5792 5793 5794 5794 5795 5795 5795 5795 5794 5794 5793 5792 5792 5791 5790 5787 5785 5783
5702 5705 5709 5713 5718 5723 5729 5734 5740 5745 5749 5753 5757 5760 5763 5765 5768 5770 5772 5774 5776 5778 5779 5781 5782 5783 5784 5785 5786 5786 5787 5787 5787 5786 5786 5785 5784 5783 5782 5781 5779 5777 5774
5693 5696 5700 5704 5708 5713 5718 5723 5729 5734 5739 5743 5747 5750 5753 5755 5757 5760 5762 5765 5767 5768 5770 5771 5773 5774 5775 5776 5777 5777 5778 5778 5778 5778 5777 5776 5775 5774 5772 5772 5770 5768 5766
5684 5687 5691 5695 5699 5703 5708 5713 5718 5723 5728 5732 5736 5739 5742 5744 5746 5749 5752 5754 5757 5758 5760 5762 5763 5764 5765 5766 5767 5768 5769 5769 5769 5768 5768 5767 5766 5765 5763 5762 5760 5759 5756
5675 5678 5682 5686 5690 5693 5698 5702 5707 5712 5716 5721 5724 5728 5730 5732 5735 5738 5741 5743 5746 5748 5750 5751 5753 5754 5756 5757 5757 5758 5759 5759 5759 5759 5758 5758 5757 5755 5754 5752 5751 5749 5747
5667 5670 5674 5677 5680 5684 5688 5692 5696 5701 5705 5709 5713 5716 5719 5722 5725 5728 5730 5733 5735 5737 5739 5741 5743 5744 5746 5747 5747 5748 5749 5749 5749 5749 5748 5748 5747 5745 5744 5742 5741 5739 5737
5659 5662 5665 5668 5672 5675 5679 5682 5686 5690 5694 5698 5701 5705 5708 5711 5714 5717 5720 5722 5724 5726 5728 5730 5732 5734 5735 5736 5737 5738 5738 5738 5738 5738 5738 5737 5736 5735 5734 5732 5730 5728 5726
5651 5654 5657 5660 5663 5666 5669 5673 5676 5679 5683 5686 5690 5693 5697 5700 5703 5706 5708 5711 5713 5715 5718 5720 5721 5723 5724 5725 5727 5727 5727 5728 5728 5727 5727 5726 5725 5724 5723 5721 5719 5717 5714
5643 5646 5649 5651 5654 5657 5660 5663 5666 5669 5672 5675 5678 5682 5685 5688 5692 5695 5698 5701 5703 5704 5707 5709 5710 5712 5713 5714 5715 5716 5716 5716 5716 5716 5716 5715 5714 5713 5711 5709 5707 5705 5703
5635 5637 5640 5642 5645 5648 5650 5653 5656 5659 5661 5664 5667 5670 5674 5677 5681 5685 5687 5690 5692 5694 5696 5698 5699 5701 5702 5703 5704 5704 5705 5705 5705 5704 5704 5703 5702 5701 5700 5698 5696 5694 5691
5627 5629 5631 5633 5636 5639 5641 5643 5646 5648 5651 5653 5656 5659 5663 5667 5670 5673 5676 5679 5681 5683 5685 5687 5688 5690 5691 5692 5692 5693 5693 5693 5693 5692 5692 5691 5690 5689 5687 5686 5684 5682 5679
5619 5620 5622 5624 5627 5629 5631 5633 5635 5638 5640 5642 5645 5648 5651 5655 5659 5662 5664 5667 5669 5672 5673 5675 5677 5678 5679 5680 5680 5681 5681 5681 5681 5680 5680 5679 5678 5676 5675 5673 5671 5669 5667
5610 5612 5613 5615 5617 5619 5621 5623 5625 5627 5630 5632 5634 5637 5640 5644 5647 5650 5653 5655 5657 5660 5661 5663 5664 5666 5667 5668 5668 5669 5669 5669 5668 5668 5667 5666 5665 5664 5662 5661 5659 5657 5654
5602 5603 5605 5606 5608 5610 5612 5613 5615 5617 5620 5622 5624 5626 5629 5633 5636 5639 5641 5644 5646 5648 5650 5651 5652 5654 5654 5655 5656 5656 5656 5656 5655 5655 5654 5653 5652 5651 5650 5648 5646 5644 5641
5594 5595 5596 5598 5600 5601 5602 5604 5606 5608 5610 5612 5614 5616 5619 5622 5624 5627 5629 5632 5634 5636 5638 5639 5640 5641 5642 5643 5643 5643 5643 5643 5642 5642 5641 5640 5639 5638 5637 5635 5633 5631 5628
5587 5588 5588 5589 5590 5592 5593 5595 5596 5598 5600 5602 5603 5605 5608 5610 5613 5615 5618 5620 5622 5624 5626 5627 5628 5629 5630 5630 5630 5630 5630 5630 5629 5629 5628 5627 5626 5625 5623 5622 5620 5618 5615
5580 5580 5580 5581 5582 5583 5584 5585 5587 5588 5590 5591 5593 5594 5596 5599 5601 5603 5606 5608 5610 5612 5613 5615 5615 5616 5617 5617 5617 5617 5617 5617 5617 5616 5615 5615 5613 5612 5610 5608 5607 5605 5602
5572 5572 5572 5573 5573 5574 5575 5576 5577 5579 5580 5581 5582 5584 5586 5588 5590 5592 5594 5596 5598 5600 5601 5602 5603 5604 5605 5605 5605 5605 5605 5605 5604 5604 5603 5602 5600 5599 5597 5595 5594 5592 5589
5564 5564 5564 5564 5564 5565 5566 5567 5568 5569 5570 5571 5573 5574 5575 5577 5578 5580 5582 5584 5585 5587 5588 5589 5590 5591 5592 5592 5593 5593 5592 5592 5592 5591 5590 5589 5588 5586 5584 5583 5581 5579 5576
5556 5555 5555 5555 5556 5556 5557 5557 5558 5559 5560 5562 5563 5564 5565 5566 5568 5569 5570 5572 5573 5574 5576 5576 5577 5578 5579 5579 5580 5580 5580 5580 5579 5579 5578 5577 5575 5574 5572 5570 5568 5566 5563
5547 5547 5547 5547 5547 5547 5548 5548 5548 5549 5550 5551 5552 5554 5555 5556 5556 5557 5559 5560 5561 5562 5563 5564 5565 5566 5566 5567 5567 5567 5567 5567 5566 5566 5565 5564 5563 5561 5560 5558 5556 5553 5551
5539 5538 5538 5538 5538 5538 5538 5538 5539 5539 5540 5541 5542 5543 5544 5545 5545 5546 5547 5548 5549 5550 5551 5552 5553 5553 5554 5554 5554 5554 5555 5554 5554 5553 5552 5551 5550 5549 5547 5545 5543 5541 5538
5530 5530 5529 5529 5529 5529 5528 5528 5529 5529 5530 5531 5532 5533 5534 5534 5535 5535 5536 5537 5538 5538 5539 5539 5540 5541 5541 5541 5541 5541 5541 5541 5541 5540 5539 5538 5537 5535 5534 5532 5530 5528 5525
Wind_Speed
44 44 44 44 44 45 45 45 43 42 42 41 40 40 40 39 39 38 38 37 36 35 35 35 34 34 34 33 33 32 32 32 32 31 31 31 31 31 31 31 31 31 31
43 44 44 45 45 45 46 45 45 44 43 42 41 41 41 41 40 40 39 38 38 37 36 36 36 36 36 35 34 34 34 34 34 33 33 33 33 33 33 33 34 34 34
41 43 45 46 46 47 47 46 46 46 44 43 43 42 42 42 42 42 40 40 39 39 38 37 37 37 37 37 37 36 35 35 35 35 35 35 34 34 34 34 35 36 36
40 42 43 45 47 48 48 48 47 47 46 45 44 44 43 43 42 42 41 41 41 40 40 39 39 39 39 39 38 38 37 36 36 36 36 36 35 35 34 35 36 37 38
40 42 43 44 46 48 49 49 48 48 47 46 45 45 45 44 43 43 43 42 42 41 41 40 40 40 40 40 40 39 38 38 37 36 36 36 36 37 37 37 37 38 39
39 41 42 43 45 47 48 49 49 49 48 47 47 46 46 45 45 45 45 44 43 42 41 42 42 42 42 41 41 40 39 38 38 38 38 38 38 38 38 38 38 39 39
38 39 41 42 44 46 47 48 48 48 49 48 48 47 47 46 46 46 45 45 43 42 42 43 43 43 43 43 43 42 41 40 40 40 40 40 40 40 40 40 40 40 40
37 38 40 41 42 44 46 47 48 48 48 49 49 48 48 47 46 46 46 45 45 44 44 44 43 43 43 43 44 43 42 42 42 42 41 41 41 41 41 41 41 41 40
36 37 39 40 42 44 45 46 47 48 48 48 49 49 49 48 48 48 47 46 46 45 45 44 44 44 44 43 43 43 43 43 43 43 43 42 42 42 42 42 43 43 43
35 36 37 40 42 45 46 46 47 48 49 49 50 49 49 49 48 48 47 47 46 45 44 45 45 44 44 44 44 44 44 44 44 44 44 43 43 43 43 43 43 44 45
34 36 37 39 41 44 46 46 47 47 48 49 49 49 49 49 49 47 47 47 47 46 46 46 46 45 45 45 45 45 45 45 45 45 45 44 44 44 45 45 45 45 45
34 36 37 39 40 43 45 46 47 48 49 49 49 49 50 50 50 49 47 47 47 47 46 46 46 46 47 47 46 45 45 46 46 46 46 46 46 46 45 45 46 46 46
33 36 38 38 39 41 43 44 45 47 47 48 49 49 50 49 50 50 49 48 48 47 47 47 47 47 47 47 46 46 47 47 46 47 47 47 47 47 46 46 46 47 47
32 34 37 39 39 39 41 42 43 45 47 48 49 49 49 49 49 50 50 50 49 49 49 49 49 48 48 48 47 47 47 48 48 48 48 47 47 48 47 47 47 48 48
31 33 36 38 38 38 39 40 42 43 44 45 47 48 49 49 50 50 50 50 50 51 50 50 50 49 48 48 47 47 47 48 48 48 47 47 48 48 48 48 48 49 49
31 32 34 36 36 36 37 38 39 41 42 44 45 48 49 50 50 50 50 50 50 50 50 50 50 50 49 48 47 47 47 47 47 48 48 48 48 48 48 49 49 50 50
31 32 33 34 35 36 35 37 38 40 42 43 43 45 48 50 51 50 51 51 51 52 51 51 50 50 50 49 48 48 48 48 48 48 49 49 48 48 49 49 49 50 50
28 30 31 33 34 35 35 35 37 39 40 41 42 44 45 47 48 48 49 50 49 49 49 49 49 48 48 49 49 48 48 48 48 48 48 48 48 48 48 48 49 49 50
27 28 30 32 33 34 35 35 36 37 38 40 40 42 43 45 47 47 48 48 48 48 48 49 48 47 47 47 48 48 47 48 48 47 46 47 47 48 48 49 49 49 50
26 28 30 31 32 33 34 34 35 36 37 38 39 40 42 43 45 46 47 48 49 49 49 47 47 47 47 47 47 47 47 47 47 46 46 47 47 47 48 49 49 48 48
26 27 29 30 31 33 34 34 35 35 36 37 38 39 41 42 43 44 45 47 48 48 48 47 47 48 48 48 47 47 46 46 46 46 46 46 46 47 48 48 48 47 47
26 27 28 29 31 32 33 34 35 35 35 36 37 39 40 40 42 43 44 45 46 46 47 47 47 47 47 47 46 46 46 46 46 46 46 46 46 46 47 47 47 46 46
26 27 28 29 30 31 31 32 33 34 35 35 36 37 39 40 41 42 42 43 44 44 44 45 46 46 46 45 46 46 45 45 45 45 46 46 46 46 46 45 45 45 45
27 27 27 27 29 30 30 31 32 33 34 35 36 36 37 38 39 41 41 42 43 42 42 42 43 44 44 44 45 45 45 45 45 45 45 45 45 45 45 45 44 45 45
27 27 27 27 28 30 31 31 32 33 34 34 35 35 35 36 36 38 39 39 39 40 40 40 41 42 42 43 44 44 45 45 45 45 45 45 45 45 45 44 45 45 45
27 27 27 28 29 30 31 32 32 33 34 34 34 35 34 35 35 36 36 36 37 37 38 38 39 40 41 42 43 43 44 44 44 44 43 43 44 44 44 44 45 45 45
Wind_Direction
236 236 234 233 232 232 232 233 233 234 236 238 241 242 243 244 246 248 250 251 252 253 253 254 256 258 260 262 263 266 267 268 271 273 275 277 279 281 283 284 285 286 288
236 236 234 233 233 232 232 233 234 235 237 239 241 243 244 244 246 248 250 251 252 253 254 257 257 259 260 261 264 266 267 268 270 272 275 276 278 280 282 283 285 286 287
237 237 235 233 234 233 233 234 235 236 237 240 242 243 245 246 246 248 250 251 252 253 255 257 258 259 261 263 264 266 267 269 271 272 274 276 278 279 281 283 284 285 287
238 237 236 235 235 234 234 235 236 237 238 240 242 244 246 248 248 248 249 251 253 254 255 257 258 260 261 263 264 266 267 269 270 271 273 276 278 279 279 281 284 286 288
239 238 237 236 236 236 235 235 236 237 238 240 243 245 246 247 248 249 250 252 253 253 254 256 258 260 261 263 264 265 266 268 270 271 273 275 277 279 280 281 283 285 287
239 239 237 236 236 236 236 236 237 238 239 240 242 244 246 247 248 249 250 252 254 254 255 256 257 259 260 261 262 263 265 267 269 271 273 274 276 279 281 282 284 285 287
240 239 238 237 238 237 236 235 237 238 239 240 242 244 246 247 247 248 249 251 252 254 255 255 256 258 259 260 261 262 264 266 269 271 272 274 276 278 280 282 284 285 286
240 239 238 238 238 237 237 236 238 239 239 240 242 244 246 246 246 248 248 250 251 253 254 255 256 257 258 260 262 263 264 266 268 270 272 274 276 278 279 281 284 285 286
242 240 239 238 238 237 237 238 240 241 240 241 243 244 246 247 247 249 249 249 250 251 253 254 255 257 258 260 261 263 265 266 268 270 272 274 275 277 279 281 283 284 286
244 241 240 239 239 238 238 239 241 242 242 242 243 244 245 246 247 249 250 250 250 251 253 255 256 258 258 259 261 264 265 265 267 270 271 273 275 278 280 281 283 285 286
245 242 242 242 242 240 239 240 242 243 244 244 244 245 245 245 246 247 250 250 250 251 254 255 256 258 259 261 263 264 265 266 268 269 270 272 275 278 279 281 282 284 285
247 244 243 244 244 241 241 242 243 244 244 245 245 245 245 245 245 247 249 250 252 253 254 255 257 259 261 262 263 265 266 267 268 269 270 272 275 277 279 281 282 283 284
248 246 244 244 244 243 243 244 244 244 245 246 245 246 245 245 246 247 248 250 252 253 254 256 258 260 262 263 264 266 267 268 268 270 271 274 276 278 279 280 281 283 284
250 248 246 244 244 245 246 246 245 245 245 246 246 246 245 245 245 247 249 250 252 254 255 257 259 261 263 264 266 268 269 268 269 271 273 275 276 278 278 279 280 281 283
252 250 248 245 245 247 247 247 246 245 245 246 246 245 245 245 245 246 249 251 252 255 257 259 260 261 262 264 267 269 269 270 271 273 274 275 275 276 277 279 280 281 283
254 252 249 246 246 248 248 247 245 245 246 246 246 245 245 245 246 247 249 251 253 254 257 258 259 260 262 264 266 267 268 270 271 273 274 275 275 276 278 279 280 281 282
254 253 251 248 248 248 249 248 247 246 248 248 247 246 246 246 247 249 251 252 254 256 258 259 260 261 262 263 264 265 268 270 271 273 273 274 275 277 278 279 281 282 283
255 254 253 251 251 249 249 250 248 248 250 248 248 248 248 248 248 249 251 252 255 257 258 260 261 262 262 263 265 266 268 270 270 271 272 274 276 277 278 279 280 283 285
257 256 255 254 253 251 251 250 249 249 251 251 249 250 250 251 250 251 252 253 256 258 260 260 260 262 263 264 266 267 269 270 271 272 273 275 276 278 279 280 281 283 285
262 260 258 257 255 252 253 252 252 251 252 252 252 252 251 252 252 252 253 254 256 258 261 262 262 262 263 265 267 268 268 270 271 273 274 275 276 277 279 280 282 283 284
267 265 262 260 257 255 255 254 255 254 254 253 254 254 254 254 254 254 255 256 258 260 261 261 261 262 264 265 267 268 269 271 272 273 274 275 276 277 278 280 281 282 283
270 268 266 262 259 259 258 257 257 256 256 256 256 256 255 255 255 256 257 258 260 261 260 261 261 263 264 266 267 269 271 271 272 273 274 275 276 278 279 281 282 282 282
270 269 267 263 261 262 260 258 257 257 257 257 257 257 257 257 258 258 259 260 260 260 260 261 261 263 264 266 267 269 270 272 273 275 275 276 277 279 280 282 282 283 284
272 271 268 263 261 260 260 259 258 257 257 258 258 258 259 260 260 259 260 260 260 260 262 262 263 264 265 266 267 267 269 271 273 275 276 277 278 279 280 281 282 283 285
274 273 269 264 261 259 259 259 259 258 258 258 257 258 260 261 260 260 260 261 260 261 262 264 264 265 265 266 268 269 270 271 273 274 275 275 277 278 279 280 282 284 285
274 272 270 266 263 262 260 259 259 259 259 258 258 260 261 262 261 261 260 259 260 261 263 264 266 267 267 268 269 270 271 272 273 273 274 275 276 277 278 280 282 283 284